CAPE
564 107 588 714 772 734 781 738 757 752 552 425 345 227 356 367 323 217 285 518 486 373 209 470 1354 874 722 692 676 620 497 186 303 376 189 580 207 148 109 363 170 90 13
146 170 465 380 336 357 383 553 438 334 330 238 156 224 168 142 194 350 371 489 626 331 280 354 683 1290 944 690 746 692 561 293 287 319 221 320 402 251 129 87 141 158 150
370 407 358 216 118 132 242 299 218 102 104 54 25 16 36 80 84 221 307 392 484 614 433 443 488 713 1183 1014 835 593 707 582 465 459 260 266 317 224 183 149 139 63 126
86 0 431 368 209 125 91 74 31 27 0 0 0 0 8 4 38 41 259 400 420 516 640 603 414 400 556 722 801 435 249 442 342 515 361 308 279 221 201 130 138 154 119
193 63 302 371 248 241 154 118 80 44 12 0 0 0 0 0 4 43 190 300 475 477 448 494 528 418 417 421 312 555 199 282 485 423 510 373 367 307 185 160 149 141 155
510 543 438 421 389 236 164 110 79 18 10 4 0 0 0 0 0 26 209 376 461 524 548 482 447 470 437 437 292 490 438 222 105 260 342 282 267 228 172 157 114 97 175
0 0 59 102 238 175 129 98 32 23 0 0 0 0 0 0 83 138 159 205 297 454 530 465 542 500 528 391 401 332 308 237 159 37 22 113 104 49 73 91 59 99 80
109 49 104 271 66 27 12 0 0 0 0 0 0 1 10 2 0 20 89 120 199 249 192 383 464 508 527 518 437 368 392 296 138 65 137 53 46 26 22 46 44 93 101
336 249 140 85 50 31 14 0 0 0 0 6 1 5 3 0 4 4 57 149 251 290 346 450 458 463 478 526 519 401 387 414 291 324 340 122 85 113 66 64 83 96 105
100 103 88 73 29 14 30 17 1 7 9 0 5 15 0 0 0 2 30 47 160 253 354 380 349 295 486 448 482 398 234 223 206 150 116 145 149 130 183 214 195 193 164
5 38 84 53 22 58 73 60 15 15 14 16 0 0 0 12 19 25 12 16 16 89 180 259 336 462 512 519 288 232 171 105 32 54 27 5 48 165 159 166 208 241 332
0 0 3 25 89 123 166 31 16 44 45 2 3 2 5 18 39 69 53 35 5 37 52 81 147 233 244 150 136 48 31 0 0 19 1 0 28 18 10 49 96 131 203
0 0 20 51 60 166 169 55 24 8 8 5 3 3 24 22 23 21 15 18 17 13 51 24 55 162 75 55 46 12 8 2 1 0 0 0 0 2 3 28 63 92 148
0 1 7 4 13 56 69 65 44 29 0 0 1 12 19 46 67 29 9 6 0 33 17 53 5 3 1 2 6 1 3 3 3 1 1 1 1 0 1 2 8 30 39
2 3 2 0 0 0 0 0 0 0 1 9 10 1 10 0 37 61 36 11 8 2 9 30 3 1 1 2 4 1 3 7 6 3 3 3 2 2 1 0 0 0 2
4 0 0 0 0 0 0 0 0 0 0 0 0 0 4 14 11 38 50 34 15 0 18 4 1 2 2 3 5 1 5 4 6 5 2 1 1 1 0 0 0 0 0
0 0 0 0 0 0 0 0 0 0 0 0 0 0 0 0 0 7 37 37 10 0 9 1 1 2 2 1 2 2 3 3 5 6 5 4 3 2 1 0 0 0 0
0 0 0 0 0 0 0 0 0 0 0 0 0 0 0 0 0 0 0 0 3 2 2 0 3 2 2 2 3 2 3 3 3 6 5 5 3 0 0 0 0 0 0
0 0 0 0 0 0 0 0 0 0 0 0 0 0 0 0 0 0 0 0 0 0 0 0 1 3 3 2 2 2 2 1 2 3 4 5 3 0 0 0 0 0 0
0 0 0 0 0 0 0 0 0 0 0 0 0 0 0 0 0 0 0 0 0 0 1 1 1 3 3 2 2 2 2 1 0 0 1 1 1 0 0 0 0 0 0
0 0 0 0 0 0 0 0 0 0 0 0 0 0 0 0 0 0 0 0 0 0 0 1 2 3 3 2 1 1 2 0 0 0 0 0 0 0 0 0 0 0 0
0 0 0 0 0 0 0 0 0 0 0 0 0 0 0 0 0 0 0 0 0 0 0 0 1 2 2 1 1 1 1 1 0 0 0 1 0 0 0 0 0 0 0
0 0 0 0 0 0 0 0 0 0 0 0 0 0 0 0 0 0 0 0 0 0 0 0 0 0 1 0 0 0 0 1 1 1 0 1 1 0 0 0 0 0 0
0 0 0 0 0 0 0 0 0 0 0 0 0 0 0 0 0 0 0 0 0 0 0 0 0 0 0 0 0 0 0 0 0 0 0 0 0 0 0 0 0 0 0
0 0 0 0 0 0 0 0 0 0 0 0 0 0 0 0 0 0 0 0 0 0 0 0 0 0 0 0 0 0 0 0 0 0 0 0 0 0 0 0 0 0 0
0 0 0 0 0 0 0 0 0 0 0 0 0 0 0 0 0 0 0 0 0 0 0 0 0 0 0 0 0 0 0 0 3 1 0 0 0 0 0 0 0 0 0
CIN
-43 -127 -66 -55 -56 -52 -55 -55 -62 -50 -55 -64 -71 -74 -58 -54 -61 -85 -68 -30 -37 -39 -38 -9 -0 -0 -0 -0 -0 -0 -0 -11 -3 -0 -0 -0 -1 -1 -0 -0 -0 -0 -8
-93 -90 -66 -74 -91 -94 -89 -63 -56 -53 -56 -76 -90 -85 -92 -95 -81 -62 -66 -48 -16 -49 -43 -27 -6 -0 -2 -5 -0 -0 -0 -8 -8 -7 -1 -1 -0 -1 -1 -1 -2 -0 -0
-77 -68 -73 -99 -120 -136 -112 -87 -84 -98 -76 -89 -98 -153 -130 -124 -123 -73 -63 -64 -43 -21 -36 -30 -22 -12 -1 -1 -3 -6 -1 -0 -4 -1 -5 -2 -1 -3 -3 -2 -0 -7 -1
-152 -0 -64 -54 -63 -114 -123 -122 -136 -135 -0 -0 -0 -0 -150 -165 -160 -151 -72 -52 -58 -42 -22 -22 -29 -28 -23 -12 -3 -9 -17 -14 -15 -4 -6 -4 -2 -6 -7 -14 -6 -2 -3
-133 -156 -87 -49 -59 -55 -74 -79 -77 -98 -110 -0 -0 -0 -0 -0 -119 -131 -83 -62 -58 -56 -46 -32 -18 -16 -24 -30 -34 -9 -26 -20 -10 -9 -4 -5 -3 -5 -12 -12 -10 -9 -3
-69 -59 -57 -32 -36 -42 -44 -62 -59 -101 -114 -136 -0 -0 -0 -0 -0 -154 -86 -54 -50 -46 -41 -38 -35 -20 -16 -17 -25 -16 -10 -17 -30 -12 -10 -10 -8 -9 -8 -8 -14 -26 -5
-0 -0 -104 -54 -32 -26 -34 -31 -45 -63 -0 -0 -0 -0 -0 -0 -94 -96 -101 -81 -73 -63 -36 -42 -40 -40 -39 -15 -11 -14 -14 -19 -13 -24 -20 -14 -12 -23 -14 -11 -16 -15 -26
-80 -100 -67 -30 -45 -46 -39 -0 -0 -0 -0 -0 -0 -84 -77 -18 -0 -138 -122 -121 -96 -85 -63 -37 -37 -33 -35 -32 -33 -8 -10 -12 -5 -19 -7 -9 -8 -10 -20 -17 -23 -15 -19
-48 -62 -64 -59 -54 -60 -34 -0 -0 -0 -0 -25 -64 -9 -106 -0 -111 -149 -139 -117 -104 -79 -66 -47 -33 -32 -36 -43 -39 -41 -23 -12 -4 -1 -1 -2 -3 -8 -10 -17 -17 -22 -24
-67 -75 -80 -73 -63 -65 -77 -46 -5 -41 -47 -0 -26 -39 -41 -0 -0 -28 -125 -134 -111 -102 -100 -65 -46 -40 -44 -57 -46 -60 -73 -75 -54 -37 -15 -1 -7 -12 -2 -7 -8 -9 -16
-25 -94 -61 -73 -65 -91 -54 -29 -58 -67 -39 -40 -0 -0 -19 -38 -63 -49 -70 -95 -129 -131 -93 -75 -66 -51 -57 -60 -77 -77 -73 -78 -133 -58 -44 -44 -30 -0 -0 -5 -4 -2 -2
-0 -0 -21 -94 -57 -49 -18 -39 -64 -38 -35 -17 -43 -12 -20 -28 -47 -33 -40 -48 -87 -93 -103 -127 -105 -98 -82 -85 -74 -131 -133 -0 -0 -41 -0 -21 -42 -9 -26 -29 -21 -15 -9
-0 -0 -124 -65 -50 -45 -41 -47 -93 -41 -57 -64 -40 -35 -32 -22 -34 -42 -38 -58 -56 -68 -57 -110 -107 -71 -103 -93 -94 -88 -85 -0 -0 -1 -0 -0 -0 -80 -94 -78 -59 -43 -28
-0 -8 -221 -180 -141 -110 -79 -85 -97 -92 -0 -0 -7 -45 -41 -33 -37 -51 -49 -62 -11 -23 -54 -57 -18 -14 -0 -0 -0 -0 -0 -0 -0 -0 -0 -0 -0 -10 -127 -9 -88 -60 -60
-4 -6 -15 -0 -0 -0 -0 -0 -0 -0 -35 -72 -62 -12 -43 -0 -53 -52 -59 -62 -38 -23 -38 -54 -48 -0 -0 -0 -0 -0 -0 -0 -0 -0 -0 -0 -0 -0 -0 -0 -0 -0 -0
-6 -0 -0 -0 -0 -0 -0 -0 -0 -0 -0 -0 -0 -8 -30 -41 -53 -65 -76 -48 -42 -24 -13 -39 -0 -0 -0 -0 -0 -0 -0 -0 -0 -0 -0 -0 -0 -0 -0 -0 -0 -0 -0
-0 -0 -0 -0 -0 -0 -0 -0 -0 -0 -0 -0 -0 -0 -0 -0 -0 -56 -96 -98 -51 -65 -60 -0 -0 -0 -0 -0 -0 -0 -0 -0 -0 -0 -0 -0 -0 -0 -0 -0 -0 -0 -0
-0 -0 -0 -0 -0 -0 -0 -0 -0 -0 -0 -0 -0 -0 -0 -0 -0 -0 -0 -0 -45 -66 -89 -111 -0 -0 -0 -0 -0 -0 -0 -0 -0 -0 -0 -0 -0 -0 -0 -0 -0 -0 -0
-0 -0 -0 -0 -0 -0 -0 -0 -0 -0 -0 -0 -0 -0 -0 -0 -0 -0 -0 -0 -0 -0 -0 -0 -0 -0 -0 -0 -0 -0 -0 -0 -0 -0 -0 -0 -0 -0 -0 -0 -0 -0 -0
-0 -0 -0 -0 -0 -0 -0 -0 -0 -0 -0 -0 -0 -0 -0 -0 -0 -0 -0 -0 -0 -0 -0 -0 -0 -0 -0 -0 -0 -0 -0 -0 -0 -0 -0 -0 -0 -0 -0 -0 -0 -0 -0
-0 -0 -0 -0 -0 -0 -0 -0 -0 -0 -0 -0 -0 -0 -0 -0 -0 -0 -0 -0 -0 -0 -0 -0 -0 -0 -0 -0 -0 -0 -0 -0 -0 -0 -0 -0 -0 -0 -0 -0 -0 -0 -0
-0 -0 -0 -0 -0 -0 -0 -0 -0 -0 -0 -0 -0 -0 -0 -0 -0 -0 -0 -0 -0 -0 -0 -0 -0 -0 -0 -0 -0 -0 -0 -0 -0 -0 -0 -0 -0 -0 -0 -0 -0 -0 -0
-0 -0 -0 -0 -0 -0 -0 -0 -0 -0 -0 -0 -0 -0 -0 -0 -0 -0 -0 -0 -0 -0 -0 -0 -1 -0 -0 -0 -0 -0 -0 -0 -0 -0 -0 -0 -0 -0 -0 -0 -0 -0 -0
-0 -0 -0 -0 -0 -0 -0 -0 -0 -0 -0 -0 -0 -0 -0 -0 -0 -0 -0 -0 -0 -0 -0 -0 -0 -0 -0 -0 -0 -0 -0 -0 -0 -0 -0 -0 -0 -0 -0 -0 -0 -0 -0
-0 -0 -0 -0 -0 -0 -0 -0 -0 -0 -0 -0 -0 -0 -0 -0 -0 -0 -0 -0 -0 -0 -0 -0 -0 -0 -0 -0 -0 -0 -0 -0 -0 -0 -1 -0 -0 -0 -0 -0 -0 -0 -0
-0 -0 -0 -0 -0 -0 -0 -0 -0 -0 -0 -0 -0 -0 -0 -0 -0 -0 -0 -0 -0 -0 -0 -0 -0 -0 -0 -0 -0 -0 -0 -0 -16 -12 -0 -0 -0 -0 -0 -0 -0 -0 -0
Wind_Speed
4 5 15 5 13 11 12 13 14 13 12 14 15 16 15 16 15 15 14 21 10 3 1 2 5 7 7 5 6 7 5 3 3 3 9 8 8 9 10 11 10 9 8
12 16 22 22 25 3 4 12 16 17 16 17 19 19 18 15 18 16 11 18 20 5 6 2 2 5 3 3 5 5 4 1 1 4 10 14 5 7 8 8 12 11 8
28 27 26 24 10 15 14 12 14 19 24 22 11 17 23 23 19 22 17 8 23 16 7 6 5 3 3 4 5 6 7 11 22 17 13 13 7 3 4 5 6 7 12
27 25 24 22 13 15 9 10 10 15 14 16 12 8 12 10 29 29 27 19 20 22 18 19 12 8 5 4 5 6 10 15 16 15 9 8 7 4 2 2 2 2 2
25 17 16 1 14 9 9 10 14 14 16 13 12 9 13 8 33 33 31 19 22 20 23 23 18 12 9 6 6 8 11 11 12 13 10 8 8 6 6 5 5 6 5
18 17 13 18 17 16 18 19 18 19 21 19 17 14 15 10 12 27 30 26 26 24 24 22 22 18 10 8 7 8 8 9 10 10 9 9 8 9 11 8 8 8 10
17 13 12 16 17 16 17 15 18 18 22 16 19 24 27 22 11 19 29 29 25 24 26 22 25 25 32 35 21 13 9 10 13 10 12 10 9 8 10 12 10 9 8
16 14 16 20 18 16 15 16 13 19 17 11 14 18 22 20 20 19 24 23 24 24 29 26 24 30 31 31 32 27 10 10 12 9 12 28 11 11 11 14 15 13 11
17 17 19 23 23 17 13 12 13 10 14 11 6 14 18 20 21 19 25 24 26 26 27 25 25 27 27 25 25 26 26 17 13 14 15 19 14 19 23 22 21 25 26
21 22 24 23 19 18 17 16 14 10 10 10 10 9 18 16 19 22 19 19 23 27 29 25 25 24 22 19 17 17 17 17 17 21 22 21 21 25 24 22 24 28 28
22 23 24 24 23 21 21 17 14 8 7 8 8 12 9 16 16 20 25 23 20 21 19 20 22 21 17 14 15 13 12 13 13 23 22 22 25 29 26 22 22 25 27
23 23 23 23 22 21 20 18 16 11 8 7 5 7 11 14 16 10 19 20 20 21 18 17 18 19 17 15 15 16 17 18 19 17 22 19 23 26 28 27 28 29 30
22 23 23 21 21 20 20 19 17 15 12 10 7 5 7 11 13 14 15 20 17 21 19 18 18 18 16 17 17 16 17 19 20 22 19 21 23 27 28 29 30 33 33
21 21 21 21 19 19 19 20 20 20 18 15 14 11 8 7 8 12 14 8 12 21 17 15 17 16 15 16 16 17 19 21 21 21 21 21 21 22 22 24 25 27 27
19 20 21 21 20 19 20 21 20 19 20 17 16 15 12 10 8 7 6 5 6 9 11 14 13 15 14 16 17 18 20 21 21 21 20 21 21 21 21 21 22 23 24
20 20 21 21 21 21 21 21 21 17 18 15 17 16 15 14 13 13 10 7 6 6 7 11 13 13 15 16 18 19 19 21 22 21 21 22 21 21 21 20 21 20 21
20 21 22 22 22 22 20 19 19 15 16 9 11 18 14 16 15 12 10 8 8 7 6 11 12 14 16 16 18 18 19 20 21 21 21 21 21 21 20 20 20 20 20
21 21 21 22 21 21 17 14 14 12 13 14 11 19 20 20 19 17 15 12 9 8 7 6 9 13 14 16 16 18 19 19 20 21 20 20 20 20 20 20 20 20 20
21 21 21 21 20 19 19 18 18 19 20 21 21 21 21 20 20 19 17 15 14 11 9 7 8 11 12 13 15 16 17 18 19 20 20 21 21 20 20 20 21 20 20
20 21 21 20 20 18 18 18 19 20 21 22 22 22 22 22 21 21 19 18 17 14 13 10 10 10 12 13 14 14 16 18 19 20 21 21 20 20 21 20 20 20 19
18 19 20 19 18 18 18 18 19 20 22 22 23 23 23 23 22 21 20 20 18 17 15 13 12 12 13 13 13 14 16 17 19 19 20 21 20 20 20 20 19 19 19
16 17 18 18 18 18 18 18 18 19 21 22 22 23 22 23 23 22 21 21 19 18 16 15 14 14 14 16 16 15 15 19 22 18 18 20 19 19 19 19 18 19 19
16 16 16 16 17 18 18 18 18 19 20 21 22 23 22 22 22 22 22 21 21 20 18 16 15 16 16 17 17 15 15 20 20 17 18 19 19 19 18 18 18 18 18
14 16 16 15 16 17 17 17 19 19 19 20 21 21 22 22 23 22 21 21 21 21 20 19 18 19 18 17 15 16 16 17 17 15 18 19 19 19 18 17 17 17 17
13 15 15 15 15 16 16 16 18 19 19 20 20 21 20 20 20 21 21 20 20 20 20 20 20 21 21 17 16 15 15 15 18 17 17 19 17 17 17 17 16 16 16
12 14 16 16 15 16 17 13 14 16 18 19 19 20 21 21 17 19 20 18 19 18 17 18 20 21 22 21 20 19 17 17 18 18 16 17 15 15 17 16 15 15 15
Wind_Direction
58 37 173 107 318 325 320 318 316 317 321 316 308 299 299 300 301 299 299 283 299 283 267 150 148 151 147 137 141 139 124 113 112 57 142 133 122 130 137 138 133 124 110
167 181 211 215 247 50 3 321 308 306 310 307 298 293 289 307 298 300 305 292 283 279 285 276 232 169 172 168 162 159 157 120 277 316 156 166 134 136 135 140 160 155 142
243 240 233 224 342 326 329 327 317 304 299 303 292 289 284 293 299 285 295 305 282 288 283 289 280 242 216 207 188 181 174 166 185 177 172 174 165 153 151 151 150 157 172
229 224 224 214 305 327 341 331 325 317 321 321 303 274 288 302 277 275 276 292 288 284 286 289 294 287 274 236 218 208 191 189 185 186 185 188 185 198 243 250 262 222 298
263 310 198 345 335 344 333 326 318 317 310 319 316 310 300 291 229 255 264 289 285 289 284 288 295 291 283 268 247 208 200 200 199 198 204 211 208 227 250 252 266 277 271
315 321 341 326 332 330 322 314 310 307 300 303 307 308 305 307 292 268 261 277 278 281 285 294 296 297 214 240 240 217 214 218 215 223 239 270 256 264 276 253 237 270 282
335 358 359 343 338 337 333 330 315 309 300 304 302 295 287 290 300 282 269 275 285 286 284 295 292 293 278 266 215 218 244 224 218 236 224 234 265 255 273 265 255 243 240
357 6 351 334 340 345 344 335 335 314 310 307 307 304 294 295 293 286 280 283 290 286 277 286 294 282 283 286 283 292 250 239 239 270 255 288 279 289 298 283 279 275 247
5 2 343 322 327 345 356 354 344 334 320 315 299 306 302 291 293 299 275 284 284 284 280 284 289 292 297 301 301 303 303 304 294 298 294 235 296 300 296 295 288 288 290
355 344 332 336 350 351 354 349 345 345 335 324 313 293 298 307 302 290 281 294 295 281 277 282 290 298 304 313 319 322 323 319 314 310 313 313 310 305 296 296 293 289 290
351 338 332 320 327 340 348 2 359 6 5 345 330 311 301 299 303 289 275 286 305 307 300 291 297 305 316 322 329 341 344 345 342 309 310 314 310 297 296 303 302 298 297
338 330 321 321 321 350 360 15 25 26 29 21 10 331 314 301 300 298 298 296 296 296 307 311 311 315 322 327 332 334 342 344 353 347 314 325 306 293 292 300 299 301 302
353 343 338 323 327 339 3 27 45 51 58 56 67 33 348 323 319 306 301 293 302 287 297 311 311 317 327 327 334 344 356 355 353 347 346 334 305 299 302 300 300 298 299
353 347 346 343 333 343 352 18 35 30 25 50 53 50 48 48 359 313 311 342 325 276 297 315 319 326 333 339 346 348 345 349 347 346 345 339 332 328 321 314 309 308 312
347 354 359 357 351 353 2 17 15 359 16 6 28 62 41 50 82 60 61 39 356 336 322 315 329 331 336 338 339 343 345 348 350 348 349 347 344 340 335 332 329 327 324
11 10 6 7 8 7 5 14 12 349 357 340 360 5 11 53 96 115 107 68 38 15 344 339 330 333 334 338 340 341 344 350 350 347 347 347 346 346 344 342 343 345 344
16 17 19 13 13 12 360 5 3 343 350 307 320 59 334 353 22 40 79 68 76 78 74 351 342 335 330 336 338 344 344 347 348 351 351 347 349 352 351 344 344 343 345
14 18 15 17 14 12 353 343 345 333 337 340 320 8 31 56 33 23 30 49 81 98 76 56 7 347 344 342 343 341 341 348 350 352 356 355 355 357 353 352 350 350 348
27 19 19 17 15 8 9 8 12 11 14 13 14 15 11 15 19 19 16 12 7 25 29 35 17 0 354 353 353 348 345 349 348 348 350 353 354 353 353 353 352 350 351
33 28 24 20 15 10 8 8 9 14 17 18 17 16 15 16 17 17 19 18 19 21 22 31 21 12 357 351 350 349 345 344 345 345 348 350 352 353 352 352 353 354 355
34 33 29 20 8 6 3 11 16 19 20 19 15 16 16 18 17 16 18 19 23 21 22 18 10 359 352 349 342 344 339 343 344 348 348 350 354 357 357 358 357 355 355
34 29 24 24 14 358 356 10 16 17 12 11 13 12 14 13 15 16 17 18 20 22 17 10 4 357 349 336 334 335 335 333 331 343 341 341 349 349 353 356 356 354 352
37 25 21 20 11 2 10 19 25 25 21 19 17 17 18 15 18 20 19 19 15 11 9 10 9 356 347 338 334 335 334 332 333 340 340 337 343 339 344 347 349 349 349
45 36 30 21 11 4 18 26 27 28 25 22 21 20 20 19 20 22 21 17 13 9 8 8 4 355 351 349 346 339 335 336 340 343 343 336 339 338 343 344 344 345 345
41 32 33 24 13 358 17 30 28 29 27 23 19 15 17 19 19 17 18 21 19 14 12 11 8 2 355 354 354 350 343 340 334 334 339 336 339 342 342 341 345 346 348
45 29 13 7 13 14 9 35 33 30 23 19 21 18 13 13 22 17 16 19 16 14 15 10 5 0 358 356 349 340 337 332 331 331 334 334 337 339 335 335 339 342 344